Location: Terra Rouge Observatory
(46.0000°N, 62.7500°W)
Time: 07:27:46
(UTC-03:00)

NOSS 3-1 (A) - Visible Passes

Search period start: 23 April 2014 00:00
Search period end: 03 May 2014 00:00
Orbit: 904 x 1309 km, 63.4° (Epoch: 19 April)

Date Brightness Start Highest point End Pass type
(mag) Time Alt. Az. Time Alt. Az. Time Alt. Az.
23 Apr 5.5 00:51:49 10° NNW 00:58:00 30° NNE 01:04:37 10° E visible
23 Apr 4.0 02:42:36 10° NW 02:50:02 81° NE 02:58:03 10° SE visible
23 Apr 4.8 04:34:24 10° WNW 04:40:29 27° WSW 04:46:52 10° SSW visible
23 Apr 6.1 22:14:24 10° NW 22:19:04 19° N 22:24:02 10° NE visible
24 Apr 5.8 00:07:05 10° NNW 00:12:43 24° NNE 00:18:45 10° ENE visible
24 Apr 4.4 01:57:58 10° NW 02:05:13 60° NE 02:13:03 10° SE visible
24 Apr 4.3 03:49:12 10° NW 03:56:06 40° WSW 04:00:22 23° SSW visible
24 Apr 6.0 21:28:46 10° WNW 21:33:39 21° NNW 21:38:52 10° NNE visible
24 Apr 5.9 23:22:12 10° NNW 23:27:21 21° NNE 23:32:50 10° ENE visible
25 Apr 4.8 01:13:21 10° NNW 01:20:17 44° NE 01:27:15 12° ESE visible
25 Apr 4.0 03:04:17 10° NW 03:11:36 59° WSW 03:14:33 38° S visible
25 Apr 5.5 04:58:30 10° W 05:01:19 12° WSW 05:01:51 12° WSW visible
25 Apr 5.8 20:43:06 10° WNW 20:48:18 24° NNW 20:53:55 10° NNE visible
25 Apr 6.0 22:37:08 10° NW 22:41:55 19° N 22:47:00 10° NE visible
26 Apr 5.2 00:28:43 10° NNW 00:35:12 34° NNE 00:42:11 10° E visible
26 Apr 3.8 02:19:31 10° NW 02:26:58 83° SW 02:29:46 45° SSE visible
26 Apr 5.1 04:11:52 10° WNW 04:17:07 21° WSW 04:17:07 21° WSW visible
26 Apr 6.0 21:51:49 10° NW 21:56:27 19° N 22:01:23 10° NE visible
26 Apr 5.5 23:44:02 10° NNW 23:50:01 27° NNE 23:56:24 10° E visible
27 Apr 4.1 01:34:51 10° NW 01:42:14 72° NE 01:45:25 39° ESE visible
27 Apr 4.7 03:26:23 10° NW 03:32:48 32° WSW 03:32:48 32° WSW visible
27 Apr 6.0 21:06:17 10° NW 21:11:00 20° N 21:16:03 10° NE visible
27 Apr 5.8 22:59:15 10° NNW 23:04:42 23° NNE 23:10:30 10° ENE visible
28 Apr 4.5 00:50:13 10° NW 00:57:22 53° NE 01:01:20 29° ESE visible
28 Apr 4.2 02:41:19 10° NW 02:48:25 47° WSW 02:48:43 46° SW visible
28 Apr 5.9 22:14:19 10° NW 22:19:18 20° NNE 22:24:36 10° ENE visible
29 Apr 4.9 00:05:36 10° NNW 00:12:22 40° NE 00:17:23 19° E visible
29 Apr 3.9 01:56:28 10° NW 02:03:51 68° WSW 02:04:47 63° SSW visible
29 Apr 5.6 03:49:43 10° WNW 03:52:11 14° W 03:52:11 14° W visible
29 Apr 6.0 21:29:09 10° NW 21:33:51 19° N 21:38:51 10° NE visible
29 Apr 5.3 23:20:58 10° NNW 23:27:15 31° NNE 23:33:35 12° E visible
30 Apr 3.9 01:11:45 10° NW 01:19:11 87° NE 01:20:59 58° SE visible
30 Apr 5.1 03:03:43 10° WNW 03:08:23 24° W 03:08:23 24° W visible
30 Apr 6.0 20:43:44 10° NW 20:48:23 19° N 20:53:20 10° NE visible
30 Apr 5.6 22:36:15 10° NNW 22:42:01 25° NNE 22:48:10 10° ENE visible
01 May 4.2 00:27:05 10° NW 00:34:24 64° NE 00:37:16 41° ESE visible
01 May 4.6 02:18:26 10° NW 02:24:40 36° WSW 02:24:40 36° WSW visible
01 May 5.7 21:51:24 10° NNW 21:56:40 22° NNE 22:02:15 10° ENE visible
01 May 4.6 23:42:28 10° NNW 23:49:29 47° NE 23:53:37 26° E visible
02 May 4.1 01:33:28 10° NW 01:40:42 54° WSW 01:41:02 54° SW visible
02 May 5.9 21:06:23 10° NW 21:11:14 20° N 21:16:24 10° NE visible
02 May 5.0 22:57:51 10° NNW 23:04:27 36° NE 23:10:02 16° E visible
